Home   Weather   Bruck an der Mur   Past weeks

Flag for Austria Past Weather in Bruck an der Mur, Styria, Austria — Yesterday and Last 2 Weeks

Now
16 °F

Clear.


Feels Like: 16 °F
Forecast: 10 / 33 °F
Wind: 1 mph from North

Location: Zeltweg

Current Time: Jan 22, 2017 at 7:25:39 pm

Latest Report: Jan 22, 2017 at 6:50 pm


Visibility: 6 mi

Pressure: 30.33 "Hg

Humidity: 79%

Dew Point: 10 °F

Location of Bruck an der MurLocation

Past Weather in Bruck an der Mur — Graph

°F

Bruck an der Mur Temperature Yesterday

Maximum temperature yesterday: 25 °F (at 1:20 pm)
Minimum temperature yesterday: 3 °F (at 4:50 am)
Average temperature yesterday: 12 °F

High & Low Weather Summary for the Past Weeks

 TemperatureHumidityPressure
High41 °F (Jan 13, 4:50 am)100% (Jan 13, 10:20 am)30.54 "Hg (Jan 13, 10:20 am)
Low3 °F (Jan 11, 8:20 am)42% (Jan 7, 5:50 pm)29.42 "Hg (Jan 13, 4:50 am)
Average21 °F75%30.12 "Hg
* Reported Jan 7 5:50 pm — Jan 22 5:50 pm, Bruck an der Mur, Weather by CustomWeather, © 2017

Note: Actual official high and low records may vary slightly from our data, if they occured in-between our weather recording intervals... More about our weather records

Advertising

Bruck an der Mur Weather History for the Previous 24 Hours

Scroll right to see more
 ConditionsComfort  
Time TempWeatherWind HumidityBarometerVisibility
5:50 pm
Sun, Jan 22
16 °FClear.2 mph79%30.33 "Hg7 mi
5:20 pm21 °FPassing clouds.2 mph74%30.33 "Hg9 mi
4:50 pm23 °FPassing clouds.2 mph68%30.33 "Hg12 mi
4:20 pm27 °FPassing clouds.2 mph64%30.33 "Hg12 mi
3:50 pm27 °FPassing clouds.3 mph69%30.33 "Hg12 mi
3:20 pm28 °FPassing clouds.1 mph59%30.33 "Hg12 mi
2:50 pm28 °FPassing clouds.1 mph64%30.33 "Hg12 mi
2:20 pm30 °FPassing clouds.1 mph59%30.36 "Hg12 mi
1:50 pm27 °FPassing clouds.1 mph69%30.36 "Hg12 mi
1:20 pm28 °FPassing clouds.1 mph64%30.36 "Hg12 mi
12:50 pm23 °FPassing clouds.1 mph74%30.39 "Hg11 mi
12:20 pm21 °FPassing clouds.2 mph74%30.39 "Hg9 mi
11:50 am19 °FPassing clouds.No wind86%30.42 "Hg11 mi
11:20 am16 °FPassing clouds.1 mph86%30.42 "Hg12 mi
10:50 am14 °FPassing clouds.1 mph85%30.45 "Hg19 mi
10:20 am14 °FSunny.1 mph92%30.45 "Hg6 mi
9:50 am14 °FCold.1 mph85%30.45 "Hg6 mi
9:20 am9 °FSleet. Ice fog.1 mph92%30.45 "Hg5 mi
8:50 am9 °FIce fog.1 mph85%30.45 "Hg2 mi
8:20 am7 °FIce fog.3 mph92%30.45 "Hg1 mi
7:50 am5 °FIce fog.2 mph92%30.45 "Hg1 mi
7:20 am5 °FIce fog.1 mph92%30.45 "Hg1 mi
6:50 am5 °FIce fog.1 mph100%30.45 "Hg1 mi
5:50 am7 °FIce fog.1 mph85%30.42 "Hg1 mi
4:50 am7 °FIce fog.1 mph92%30.45 "Hg1 mi
3:50 am7 °FPassing clouds.3 mph100%30.45 "Hg9 mi
9:50 pm
Sat, Jan 21
9 °FClear.2 mph92%30.45 "Hg9 mi
8:50 pm12 °FClear.1 mph85%30.42 "Hg9 mi
7:50 pm12 °FClear.2 mph79%30.42 "Hg9 mi
Weather by CustomWeather, © 2017

See weather overviewHow to use our weather pages